Find Starlink 31747

NORAD ID: 59564 Int'l Des: 2024-076 Owner: SPXS Country: US Constellation: starlink operational
LEOCIRCULAR

現在のビュー

3D地球を読み込み中...

About Starlink 31747

Starlink 31747 (NORAD 59564) is a starlink constellation satellite (v2 mini) launched Apr 23, 2024 by SPXS of US. It operates in LEO, CIRCULAR orbit with a mass of 730.00 kg.

次回通過

Passes for default location (London). Set your location on the main map for personalized predictions.

高度履歴

Loading altitude history...

軌道要素

1 59564U 24076A 26237.70438319 .00001912 00000-0 79024-4 0 9992
2 59564 43.0020 123.9088 0001358 257.4901 102.5799 15.27563921132466
Epoch: Aug 25, 2026 • Age: 9 hours

現在のステータス

高度 487.8 km
遠地点 / 近地点 N/A
速度 7.62 km/s
衛星直下点 -22.71°S, 31.26°W
打ち上げ日 Apr 23, 2024
運用期間 2.3 years
タイプ internet

技術仕様

分類 Payload
質量 730.00 kg
乾燥質量 700.00 kg
総質量 730.00 kg
長さ 0.30 m
直径 4.10 m
スパン 29.00 m
形状 Box + pan
製造者 SPXS
バスタイプ Starlink V2M
フェーズステータス In Orbit
所有者/国 SPXS/US

Most Searched